Time,TemperatureF,DewpointF,PressureIn,WindDirection,WindDirectionDegrees,WindSpeedMPH,WindSpeedGustMPH,Humidity,HourlyPrecipIn,Conditions,Clouds,dailyrainin,SoftwareType,DateUTC
2013-01-07 00:02:00,69.9,69.0,30.10,WSW,248,0.0,-999.0,96,-99.99,,,0.00,weatherlink.com 1.10,2013-01-07 05:02:00,
2013-01-07 00:17:00,70.0,69.0,30.10,NW,307,0.0,-999.0,96,-99.99,,,0.00,weatherlink.com 1.10,2013-01-07 05:17:00,
2013-01-07 00:32:00,69.9,69.0,30.10,WNW,289,0.0,-999.0,96,-99.99,,,0.00,weatherlink.com 1.10,2013-01-07 05:32:00,
2013-01-07 00:47:00,69.7,69.0,30.09,NW,318,0.0,-999.0,96,-99.99,,,0.00,weatherlink.com 1.10,2013-01-07 05:47:00,
2013-01-07 01:02:00,69.5,68.0,30.09,NW,317,0.0,-999.0,96,-99.99,,,0.00,weatherlink.com 1.10,2013-01-07 06:02:00,
2013-01-07 01:17:00,69.3,68.0,30.09,NW,318,0.0,-999.0,96,-99.99,,,0.00,weatherlink.com 1.10,2013-01-07 06:17:00,
2013-01-07 01:32:00,69.1,68.0,30.08,NW,319,0.0,-999.0,96,-99.99,,,0.00,weatherlink.com 1.10,2013-01-07 06:32:00,
2013-01-07 01:47:00,68.9,68.0,30.08,NW,319,0.0,-999.0,96,-99.99,,,0.00,weatherlink.com 1.10,2013-01-07 06:47:00,
2013-01-07 02:02:00,68.7,68.0,30.08,NW,320,0.0,-999.0,96,-99.99,,,0.00,weatherlink.com 1.10,2013-01-07 07:02:00,
2013-01-07 02:17:00,68.5,67.0,30.08,NNW,331,0.0,-999.0,96,-99.99,,,0.00,weatherlink.com 1.10,2013-01-07 07:17:00,
2013-01-07 02:32:00,68.3,68.0,30.08,NW,326,0.0,-999.0,97,-99.99,,,0.00,weatherlink.com 1.10,2013-01-07 07:32:00,
2013-01-07 02:47:00,68.1,67.0,30.07,NNW,331,0.0,-999.0,96,-99.99,,,0.00,weatherlink.com 1.10,2013-01-07 07:47:00,
2013-01-07 03:02:00,67.9,67.0,30.07,NW,326,0.0,-999.0,97,-99.99,,,0.00,weatherlink.com 1.10,2013-01-07 08:02:00,
2013-01-07 03:17:00,67.8,67.0,30.08,NNW,329,0.0,-999.0,97,-99.99,,,0.00,weatherlink.com 1.10,2013-01-07 08:17:00,
2013-01-07 03:32:00,67.5,67.0,30.07,NNW,329,0.0,-999.0,97,-99.99,,,0.00,weatherlink.com 1.10,2013-01-07 08:32:00,
2013-01-07 03:47:00,67.4,67.0,30.07,NNW,329,0.0,-999.0,97,-99.99,,,0.00,weatherlink.com 1.10,2013-01-07 08:47:00,
2013-01-07 04:02:00,67.2,66.0,30.07,NNW,329,0.0,-999.0,97,-99.99,,,0.00,weatherlink.com 1.10,2013-01-07 09:02:00,
2013-01-07 04:17:00,67.3,67.0,30.06,NNE,17,0.0,-999.0,97,-99.99,,,0.00,weatherlink.com 1.10,2013-01-07 09:17:00,
2013-01-07 04:32:00,67.3,67.0,30.06,NW,321,0.0,-999.0,97,-99.99,,,0.00,weatherlink.com 1.10,2013-01-07 09:32:00,
2013-01-07 04:47:00,67.1,66.0,30.06,NNE,17,0.0,-999.0,97,-99.99,,,0.00,weatherlink.com 1.10,2013-01-07 09:47:00,
2013-01-07 05:02:00,67.1,66.0,30.07,NNE,17,0.0,-999.0,97,-99.99,,,0.00,weatherlink.com 1.10,2013-01-07 10:02:00,
2013-01-07 05:17:00,67.1,66.0,30.07,NNW,334,0.0,-999.0,97,-99.99,,,0.00,weatherlink.com 1.10,2013-01-07 10:17:00,
2013-01-07 05:32:00,67.3,67.0,30.08,NW,321,0.0,-999.0,97,-99.99,,,0.00,weatherlink.com 1.10,2013-01-07 10:32:00,
2013-01-07 05:47:00,67.4,67.0,30.08,NNW,329,0.0,-999.0,97,-99.99,,,0.00,weatherlink.com 1.10,2013-01-07 10:47:00,
2013-01-07 06:02:00,67.3,67.0,30.08,NNW,329,0.0,-999.0,97,-99.99,,,0.01,weatherlink.com 1.10,2013-01-07 11:02:00,
2013-01-07 06:17:00,67.1,66.0,30.08,NNW,329,0.0,-999.0,97,-99.99,,,0.01,weatherlink.com 1.10,2013-01-07 11:17:00,
2013-01-07 06:32:00,66.9,66.0,30.08,NNW,329,0.0,-999.0,97,-99.99,,,0.01,weatherlink.com 1.10,2013-01-07 11:32:00,
2013-01-07 06:47:00,66.5,66.0,30.09,NNW,329,0.0,-999.0,97,-99.99,,,0.01,weatherlink.com 1.10,2013-01-07 11:47:00,
2013-01-07 07:02:00,66.4,66.0,30.09,NNW,329,0.0,-999.0,97,-99.99,,,0.01,weatherlink.com 1.10,2013-01-07 12:02:00,
2013-01-07 07:17:00,66.7,66.0,30.10,North,5,0.0,-999.0,97,-99.99,,,0.01,weatherlink.com 1.10,2013-01-07 12:17:00,
2013-01-07 07:32:00,67.1,66.0,30.11,NNW,329,0.0,-999.0,97,-99.99,,,0.01,weatherlink.com 1.10,2013-01-07 12:32:00,
2013-01-07 07:47:00,67.4,67.0,30.12,NE,53,0.0,-999.0,97,-99.99,,,0.01,weatherlink.com 1.10,2013-01-07 12:47:00,
2013-01-07 08:02:00,67.9,67.0,30.12,NNE,17,0.0,-999.0,96,-99.99,,,0.01,weatherlink.com 1.10,2013-01-07 13:02:00,
2013-01-07 08:17:00,68.4,67.0,30.13,NNW,329,0.0,-999.0,95,-99.99,,,0.01,weatherlink.com 1.10,2013-01-07 13:17:00,
2013-01-07 08:32:00,69.1,68.0,30.13,NNW,339,0.0,-999.0,95,-99.99,,,0.01,weatherlink.com 1.10,2013-01-07 13:32:00,
2013-01-07 08:47:00,69.6,68.0,30.13,NNE,15,0.0,-999.0,94,-99.99,,,0.01,weatherlink.com 1.10,2013-01-07 13:47:00,
2013-01-07 09:02:00,70.7,69.0,30.14,NW,317,0.0,-999.0,93,-99.99,,,0.01,weatherlink.com 1.10,2013-01-07 14:02:00,
2013-01-07 09:17:00,71.5,69.0,30.14,NNW,331,0.0,-999.0,92,-99.99,,,0.01,weatherlink.com 1.10,2013-01-07 14:17:00,
2013-01-07 09:32:00,71.9,69.0,30.14,WNW,300,0.0,-999.0,91,-99.99,,,0.01,weatherlink.com 1.10,2013-01-07 14:32:00,
2013-01-07 09:47:00,72.1,69.0,30.15,NNE,27,0.0,-999.0,91,-99.99,,,0.01,weatherlink.com 1.10,2013-01-07 14:47:00,
2013-01-07 10:02:00,72.6,70.0,30.15,East,98,0.0,-999.0,91,-99.99,,,0.01,weatherlink.com 1.10,2013-01-07 15:02:00,
2013-01-07 10:17:00,72.9,70.0,30.15,ESE,118,0.0,-999.0,90,-99.99,,,0.01,weatherlink.com 1.10,2013-01-07 15:17:00,
2013-01-07 10:32:00,71.4,69.0,30.15,East,84,0.0,-999.0,91,-99.99,,,0.01,weatherlink.com 1.10,2013-01-07 15:32:00,
2013-01-07 10:47:00,70.4,68.0,30.15,SE,134,0.0,-999.0,93,-99.99,,,0.01,weatherlink.com 1.10,2013-01-07 15:47:00,
2013-01-07 11:02:00,70.1,68.0,30.14,SE,135,0.0,-999.0,94,-99.99,,,0.01,weatherlink.com 1.10,2013-01-07 16:02:00,
2013-01-07 11:17:00,69.7,68.0,30.14,ESE,103,0.0,-999.0,94,-99.99,,,0.03,weatherlink.com 1.10,2013-01-07 16:17:00,
2013-01-07 11:32:00,69.9,69.0,30.14,East,96,0.0,-999.0,95,-99.99,,,0.06,weatherlink.com 1.10,2013-01-07 16:32:00,
2013-01-07 11:47:00,69.8,68.0,30.13,SSE,155,0.0,-999.0,95,-99.99,,,0.08,weatherlink.com 1.10,2013-01-07 16:47:00,
2013-01-07 12:02:00,69.8,68.0,30.12,SE,144,0.0,-999.0,95,-99.99,,,0.14,weatherlink.com 1.10,2013-01-07 17:02:00,
2013-01-07 12:17:00,69.7,68.0,30.11,South,188,0.0,-999.0,95,-99.99,,,0.19,weatherlink.com 1.10,2013-01-07 17:17:00,
2013-01-07 12:32:00,69.9,69.0,30.11,South,173,0.0,-999.0,95,-99.99,,,0.19,weatherlink.com 1.10,2013-01-07 17:32:00,
2013-01-07 12:47:00,69.6,68.0,30.10,SE,146,0.0,-999.0,94,-99.99,,,0.19,weatherlink.com 1.10,2013-01-07 17:47:00,
2013-01-07 13:03:00,70.0,69.0,30.09,NNW,333,0.0,-999.0,95,-99.99,,,0.19,weatherlink.com 1.10,2013-01-07 18:03:00,
2013-01-07 13:18:00,70.5,69.0,30.09,NE,47,0.0,-999.0,95,-99.99,,,0.19,weatherlink.com 1.10,2013-01-07 18:18:00,
2013-01-07 13:33:00,70.8,68.0,30.08,NE,53,0.0,-999.0,92,-99.99,,,0.19,weatherlink.com 1.10,2013-01-07 18:33:00,
2013-01-07 13:48:00,70.9,69.0,30.08,NNE,20,0.0,-999.0,93,-99.99,,,0.19,weatherlink.com 1.10,2013-01-07 18:48:00,
2013-01-07 14:03:00,70.6,69.0,30.08,NNW,338,0.0,-999.0,94,-99.99,,,0.20,weatherlink.com 1.10,2013-01-07 19:03:00,
2013-01-07 14:18:00,70.3,69.0,30.08,NNW,340,0.0,-999.0,94,-99.99,,,0.20,weatherlink.com 1.10,2013-01-07 19:18:00,
2013-01-07 14:33:00,70.9,69.0,30.07,NNE,32,0.0,-999.0,94,-99.99,,,0.21,weatherlink.com 1.10,2013-01-07 19:33:00,
2013-01-07 14:48:00,70.7,68.0,30.07,NNE,24,0.0,-999.0,92,-99.99,,,0.21,weatherlink.com 1.10,2013-01-07 19:48:00,
2013-01-07 15:03:00,71.3,70.0,30.06,NNW,337,0.0,-999.0,94,-99.99,,,0.21,weatherlink.com 1.10,2013-01-07 20:03:00,
2013-01-07 15:18:00,72.1,70.0,30.06,NNW,331,0.0,-999.0,93,-99.99,,,0.21,weatherlink.com 1.10,2013-01-07 20:18:00,
2013-01-07 15:33:00,72.4,70.0,30.06,WNW,300,0.0,-999.0,93,-99.99,,,0.21,weatherlink.com 1.10,2013-01-07 20:33:00,
2013-01-07 15:48:00,72.4,70.0,30.07,NNE,16,0.0,-999.0,93,-99.99,,,0.21,weatherlink.com 1.10,2013-01-07 20:48:00,
2013-01-07 16:03:00,72.6,70.0,30.08,ENE,69,0.0,-999.0,92,-99.99,,,0.21,weatherlink.com 1.10,2013-01-07 21:03:00,
2013-01-07 16:18:00,72.8,70.0,30.07,NNE,12,0.0,-999.0,92,-99.99,,,0.21,weatherlink.com 1.10,2013-01-07 21:18:00,
2013-01-07 16:33:00,73.2,71.0,30.08,NW,319,0.0,-999.0,92,-99.99,,,0.21,weatherlink.com 1.10,2013-01-07 21:33:00,
2013-01-07 16:48:00,73.0,70.0,30.08,NNE,16,0.0,-999.0,91,-99.99,,,0.21,weatherlink.com 1.10,2013-01-07 21:48:00,
2013-01-07 17:03:00,72.9,70.0,30.07,NNE,16,0.0,-999.0,90,-99.99,,,0.21,weatherlink.com 1.10,2013-01-07 22:03:00,
2013-01-07 17:18:00,72.6,69.0,30.08,ENE,58,0.0,-999.0,89,-99.99,,,0.21,weatherlink.com 1.10,2013-01-07 22:18:00,
2013-01-07 17:33:00,72.4,69.0,30.08,East,83,0.0,-999.0,89,-99.99,,,0.21,weatherlink.com 1.10,2013-01-07 22:33:00,
2013-01-07 17:48:00,72.0,69.0,30.09,NNE,12,0.0,-999.0,89,-99.99,,,0.21,weatherlink.com 1.10,2013-01-07 22:48:00,
2013-01-07 18:03:00,71.7,69.0,30.09,NNW,333,0.0,-999.0,90,-99.99,,,0.21,weatherlink.com 1.10,2013-01-07 23:03:00,
2013-01-07 18:18:00,71.5,69.0,30.09,NE,47,0.0,-999.0,90,-99.99,,,0.21,weatherlink.com 1.10,2013-01-07 23:18:00,
2013-01-07 18:33:00,71.4,69.0,30.10,NE,47,0.0,-999.0,91,-99.99,,,0.21,weatherlink.com 1.10,2013-01-07 23:33:00,
2013-01-07 18:48:00,71.2,69.0,30.10,NE,47,0.0,-999.0,91,-99.99,,,0.21,weatherlink.com 1.10,2013-01-07 23:48:00,
2013-01-07 19:03:00,71.3,69.0,30.10,NE,47,0.0,-999.0,92,-99.99,,,0.21,weatherlink.com 1.10,2013-01-08 00:03:00,
2013-01-07 19:18:00,71.2,69.0,30.11,NE,47,0.0,-999.0,92,-99.99,,,0.21,weatherlink.com 1.10,2013-01-08 00:18:00,
2013-01-07 19:33:00,71.2,69.0,30.11,NNE,12,0.0,-999.0,92,-99.99,,,0.21,weatherlink.com 1.10,2013-01-08 00:33:00,
2013-01-07 19:48:00,71.0,69.0,30.11,NNE,30,0.0,-999.0,92,-99.99,,,0.21,weatherlink.com 1.10,2013-01-08 00:48:00,
2013-01-07 20:03:00,71.0,69.0,30.11,NE,34,0.0,-999.0,92,-99.99,,,0.21,weatherlink.com 1.10,2013-01-08 01:03:00,
2013-01-07 20:18:00,71.0,69.0,30.11,NNW,333,0.0,-999.0,93,-99.99,,,0.21,weatherlink.com 1.10,2013-01-08 01:18:00,
2013-01-07 20:33:00,70.9,69.0,30.12,NNE,22,0.0,-999.0,93,-99.99,,,0.21,weatherlink.com 1.10,2013-01-08 01:33:00,
2013-01-07 20:48:00,70.7,69.0,30.12,NNE,22,0.0,-999.0,93,-99.99,,,0.21,weatherlink.com 1.10,2013-01-08 01:48:00,
2013-01-07 21:03:00,70.3,68.0,30.12,NNE,25,0.0,-999.0,93,-99.99,,,0.21,weatherlink.com 1.10,2013-01-08 02:03:00,
2013-01-07 21:18:00,69.8,68.0,30.12,NNE,26,0.0,-999.0,94,-99.99,,,0.21,weatherlink.com 1.10,2013-01-08 02:18:00,
2013-01-07 21:33:00,69.4,68.0,30.12,NNE,25,0.0,-999.0,94,-99.99,,,0.21,weatherlink.com 1.10,2013-01-08 02:33:00,
2013-01-07 21:48:00,68.9,68.0,30.12,NNE,25,0.0,-999.0,95,-99.99,,,0.21,weatherlink.com 1.10,2013-01-08 02:48:00,
2013-01-07 22:03:00,68.6,67.0,30.12,NNE,26,0.0,-999.0,95,-99.99,,,0.21,weatherlink.com 1.10,2013-01-08 03:03:00,
2013-01-07 22:18:00,68.7,68.0,30.12,NNE,26,0.0,-999.0,96,-99.99,,,0.21,weatherlink.com 1.10,2013-01-08 03:18:00,
2013-01-07 22:33:00,68.9,68.0,30.11,NNE,29,0.0,-999.0,96,-99.99,,,0.21,weatherlink.com 1.10,2013-01-08 03:33:00,
2013-01-07 22:48:00,69.2,68.0,30.11,NNE,28,0.0,-999.0,96,-99.99,,,0.21,weatherlink.com 1.10,2013-01-08 03:48:00,
2013-01-07 23:03:00,69.3,68.0,30.11,NNE,29,0.0,-999.0,96,-99.99,,,0.21,weatherlink.com 1.10,2013-01-08 04:03:00,
2013-01-07 23:18:00,69.4,68.0,30.11,SSW,196,0.0,-999.0,96,-99.99,,,0.21,weatherlink.com 1.10,2013-01-08 04:18:00,
2013-01-07 23:33:00,69.6,69.0,30.10,SSW,196,0.0,-999.0,96,-99.99,,,0.22,weatherlink.com 1.10,2013-01-08 04:33:00,
2013-01-07 23:48:00,70.0,69.0,30.10,SSW,196,0.0,-999.0,96,-99.99,,,0.24,weatherlink.com 1.10,2013-01-08 04:48:00,